Lemoore NAS, CA

8:47 AM PDT on April 27, 2017 (GMT -0700)
Lemoore Naval Air Station

Weather History for KNLC - July, 2013

Change the Weather History Date:

Monday, July 15, 2013

  Actual Average Record
Temperature  
Mean Temperature 82 °F -  
Max Temperature 100 °F 94 °F 105 °F (2016)
Min Temperature 64 °F 62 °F 51 °F (2011)
Cooling Degree Days 16    
Growing Degree Days 32 (Base 50)    
Moisture  
Dew Point 46 °F    
Average Humidity 31    
Maximum Humidity 60    
Minimum Humidity 15    
Precipitation  
Precipitation 0.00 in - - ()
Sea Level Pressure  
Sea Level Pressure 29.79 in    
Wind  
Wind Speed 8 mph (NW)    
Max Wind Speed 16 mph    
Max Gust Speed -    
Visibility 10 miles    
Events      
Averages and records for this station are not official NWS values.
T = Trace of Precipitation, MM = Missing Value Source: NWS Daily Summary

Daily Weather History Graph

Daily Weather History Graph

Search for Another Location

Airport or City:

Trip Planner

Search our weather history database for the weather conditions in past years. The results will help you decide how hot, cold, wet, or windy it might be!

Date:

Astronomy

Jul. 15, 2013 Rise Set
Actual Time 5:53 AM PDT 8:17 PM PDT
Civil Twilight 5:24 AM PDT 8:46 PM PDT
Nautical Twilight 4:47 AM PDT 9:23 PM PDT
Astronomical Twilight 4:07 AM PDT 10:03 PM PDT
Moon 1:04 PM PDT (7/15) No Moon Set
Length of Visible Light 15h 22m
Length of Day
14h 23m
Waxing Crescent, 46% of the Moon is Illuminated
Jul 15
Waxing Crescent
Jul 15
First Quarter
Jul 22
Full
Jul 29
Last Quarter
Aug 6
New

Hourly Weather History & Observations

Time (PDT) Temp. Dew Point Humidity Pressure Visibility Wind Dir Wind Speed Gust Speed Precip Events Conditions
12:56 AM 75.0 °F 44.1 °F 33% 29.82 in 10.0 mi NW 9.2 mph - N/A   Clear
1:56 AM 72.0 °F 43.0 °F 35% 29.82 in 10.0 mi NW 8.1 mph - N/A   Clear
2:56 AM 70.0 °F 44.1 °F 39% 29.82 in 10.0 mi NW 5.8 mph - N/A   Clear
3:56 AM 68.0 °F 48.9 °F 50% 29.82 in 10.0 mi NNW 6.9 mph - N/A   Clear
4:56 AM 66.0 °F 50.0 °F 56% 29.82 in 10.0 mi West 9.2 mph - N/A   Clear
5:56 AM 64.0 °F 50.0 °F 60% 29.83 in 10.0 mi West 6.9 mph - N/A   Clear
6:56 AM 68.0 °F 51.1 °F 55% 29.84 in 10.0 mi West 5.8 mph - N/A   Clear
7:06 AM 69.8 °F 51.8 °F 53% 29.85 in 10.0 mi West 4.6 mph - N/A   Partly Cloudy
7:56 AM 73.9 °F 50.0 °F 43% 29.85 in 10.0 mi WNW 6.9 mph - N/A   Partly Cloudy
8:56 AM 79.0 °F 46.9 °F 32% 29.85 in 10.0 mi NNW 8.1 mph - N/A   Partly Cloudy
9:56 AM 84.0 °F 46.9 °F 27% 29.84 in 10.0 mi NNW 6.9 mph - N/A   Partly Cloudy
10:56 AM 89.1 °F 46.0 °F 22% 29.83 in 10.0 mi Variable 4.6 mph - N/A   Clear
11:56 AM 91.0 °F 44.1 °F 20% 29.82 in 10.0 mi West 6.9 mph - N/A   Clear
12:56 PM 93.0 °F 45.0 °F 19% 29.81 in 10.0 mi WNW 6.9 mph - N/A   Clear
1:56 PM 95.0 °F 44.1 °F 17% 29.78 in 10.0 mi West 4.6 mph - N/A   Clear
2:56 PM 98.1 °F 43.0 °F 15% 29.76 in 10.0 mi NW 6.9 mph - N/A   Clear
3:56 PM 99.0 °F 43.0 °F 15% 29.74 in 10.0 mi NW 9.2 mph - N/A   Clear
4:56 PM 99.0 °F 45.0 °F 16% 29.72 in 10.0 mi NNW 10.4 mph - N/A   Partly Cloudy
5:56 PM 97.0 °F 48.9 °F 19% 29.71 in 10.0 mi North 16.1 mph - N/A   Clear
6:56 PM 95.0 °F 50.0 °F 22% 29.71 in 10.0 mi North 15.0 mph - N/A   Clear
7:56 PM 90.0 °F 50.0 °F 25% 29.73 in 10.0 mi NNW 15.0 mph - N/A   Clear
8:56 PM 82.9 °F 42.1 °F 24% 29.74 in 10.0 mi NW 11.5 mph - N/A   Clear
9:56 PM 78.1 °F 42.1 °F 28% 29.76 in 10.0 mi NW 11.5 mph - N/A   Clear
10:56 PM 75.0 °F 39.9 °F 28% 29.78 in 10.0 mi NW 10.4 mph - N/A   Clear
11:56 PM 73.0 °F 42.1 °F 33% 29.79 in 10.0 mi NW 10.4 mph - N/A   Clear